Domov               UVHVVR             MKGP            O straneh              
ZDRAVSTVENO VARSTVO RASTLIN
  MREŽA AGROMET. POSTAJ
 ► PROGNOSTIČNA OBVESTILA
AGROMETEOROLOŠKI PODATKI -
ARSO
OBVLADOVANJE TVEGANJ ZARADI
NEUGODNIH VREMENSKIH RAZMER
  ► NARAVNE NESREČE
  ► SUŠA/MOČA
  ► NAMAKANJE
  ► ŽLED (gozdarstvo)
KARTOGRAFSKI PRIKAZI
SPLETNE POVEZAVE
PROJEKTI IN PUBLIKACIJE

AGROMETEOROLOŠKA MREŽA: VREMENSKE POSTAJE IN FENOLOŠKA OPAZOVANJA

Pregled podatkov za lokacijo Črnomelj, meteorološka postaja 859096

Pregled senzorjev na lokaciji

ID Ime Zadnja
vrednost
Datum
zadnje
spremembe
Tip
senzorja
4080 Temperatura 2 m ( °C) 10,56 °C 23.8.2017 05:45 50YA
4081 Relativna vlaga 2 m (% RH) 83,23 % RH 23.8.2017 05:45 50YA
4082 Omočenost lista (U) 0 U 23.8.2017 05:45 A730WET
4083 Padavine 0.2 mm (mm) 0 mm 23.8.2017 05:45 Rain-O-Matic

Pregled podatkov zadnjih 24 ur

Zap.
št.
Datum in čas Črnomelj
Omočenost
lista
Padavine
0.2
mm
Relativna
vlaga
2
m
Temperatura
2
m
0 23.8.2017 05:00 0 0 83,23 10,56
1 23.8.2017 04:30 0 0 80,01 10,96
2 23.8.2017 04:00 0 0 78,32 11,29
3 23.8.2017 03:30 0 0 70,12 12,75
4 23.8.2017 03:00 0 0 66,23 13,3
5 23.8.2017 02:30 0 0 71,3 12,49
6 23.8.2017 02:00 0 0 66,46 13,39
7 23.8.2017 01:30 0 0 66,77 13,29
8 23.8.2017 01:00 0 0 72,48 12,32
9 23.8.2017 00:30 0 0 67,32 13,52
10 23.8.2017 00:00 0 0 64,89 14,03
11 22.8.2017 23:30 0 0 64,87 14,2
12 22.8.2017 23:00 0 0 63,43 14,68
13 22.8.2017 22:30 0 0 62,42 14,95
14 22.8.2017 22:00 0 0 61,13 15,19
15 22.8.2017 21:30 0 0 61,1 15,29
16 22.8.2017 21:00 0 0 59,88 15,57
17 22.8.2017 20:30 0 0 59,27 15,85
18 22.8.2017 20:00 0 0 58,47 16,24
19 22.8.2017 19:30 0 0 58,06 16,68
20 22.8.2017 19:00 0 0 60,7 17,05
21 22.8.2017 18:30 0 0 58,24 17,8
22 22.8.2017 18:00 0 0 54,46 19,06
23 22.8.2017 17:30 0 0 46,09 20,59
24 22.8.2017 17:00 0 0 38,77 21,6
25 22.8.2017 16:30 0 0 33,32 23,64
26 22.8.2017 16:00 0 0 32,41 24,57
27 22.8.2017 15:30 0 0 31,95 24,78
28 22.8.2017 15:00 0 0 30,59 25,34
29 22.8.2017 14:30 0 0 31,32 25,01
30 22.8.2017 14:00 0 0 31,09 24,89
31 22.8.2017 13:30 0 0 31,49 24,69
32 22.8.2017 13:00 0 0 32,4 24,72
33 22.8.2017 12:30 0 0 34,39 24,15
34 22.8.2017 12:00 0 0 34,85 23,95
35 22.8.2017 11:30 0 0 38,03 23,21
36 22.8.2017 11:00 0 0 39,52 23,01
37 22.8.2017 10:30 0 0 42,27 22,27
38 22.8.2017 10:00 0 0 42,1 21,58
39 22.8.2017 09:30 0 0 43,28 20,62
40 22.8.2017 09:00 0 0 50,8 19,99
41 22.8.2017 08:30 0 0 62,52 18,41
42 22.8.2017 08:00 0 0 69,51 16,27
43 22.8.2017 07:30 0 0 72,26 14,89
44 22.8.2017 07:00 0 0 72,08 14,13
45 22.8.2017 06:30 0 0 65,31 13,7
© 2011 Ministrstvo za kmetijstvo, gozdarstvo in prehrano. Vse pravice pridržane.